Regional Weather Roundup
Issued by NWS

Home | Current Version | Previous Version | Text Only | Print | Product List | Glossary On
Versions: 1 2 3 4 5 6 7 8 9 10 11 12 13 14 15 16 17 18 19 20 21 22 23 24 25 26 27 28 29 30 31 32 33 34 35 36 37 38 39 40 41 42 43 44 45 46 47 48 49 50
000
ASUS43 KTOP 030508
RWRKS

WEATHER ROUNDUP FOR KANSAS
NATIONAL WEATHER SERVICE GOODLAND KS
1200 AM CDT FRI JUL 03 2015

NOTE:  "FAIR" INDICATES FEW OR NO CLOUDS BELOW 12,000 FEET WITH NO
SIGNIFICANT WEATHER AND/OR OBSTRUCTIONS TO VISIBILITY.

KSZ001>006-013>018-027>032-041>047-030600-
NORTHWEST KANSAS

CITY           SKY/WX    TMP DP  RH WIND       PRES   REMARKS
GOODLAND       PTCLDY    65  55  70 E5        30.10S
HAYS           CLEAR     73  59  60 CALM      29.99S
HILL CITY      CLEAR     71  60  68 N9        30.01S
RUSSELL        CLEAR     75  62  64 N12       29.96R
$$

KSZ061>065-074>080-084>089-030600-
SOUTHWEST KANSAS

CITY           SKY/WX    TMP DP  RH WIND       PRES   REMARKS
DODGE CITY     CLEAR     69  63  81 SW8       30.01S
ELKHART          N/A     66  60  81 S7          N/A
GARDEN CITY    CLEAR     70  65  84 SW7       30.02S
GREAT BEND     MOCLDY    73  66  78 NW5       29.98
LIBERAL        PTCLDY    68  63  83 CALM      30.06R
PRATT          CLEAR     68  64  88 W6        29.99S
$$

KSZ066>073-081>083-090>101-030600-
SOUTHEAST KANSAS

CITY           SKY/WX    TMP DP  RH WIND       PRES   REMARKS
CHANUTE        PTCLDY    71  69  93 CALM      29.93S FOG
COFFEYVILLE    PTCLDY    72  69  90 S3        29.90F
HUTCHINSON     CLEAR     71  67  87 NE5       29.95R
MEDICINE LODGE   N/A     71  66  84 SE6       29.96R
NEWTON         CLEAR     68  63  83 S7        29.96F
PARSONS        CLEAR     71  70  96 CALM      29.94S
WICHITA INTL   PTCLDY    71  67  87 S5        29.95S
WICHITA JABRA  CLEAR     68  66  93 S6        29.95R
WICHITA MCCONL CLEAR     71  67  87 E3        29.95S
WINFIELD       PTCLDY    71  68  90 CALM      29.94F
$$

KSZ007>012-019>026-033>040-048>060-102>105-030600-
NORTHEAST KANSAS

CITY           SKY/WX    TMP DP  RH WIND       PRES   REMARKS
CONCORDIA      CLEAR     66  65  96 SW3       29.95R FOG
EMPORIA        MOCLDY    71  69  93 S7        29.91F
LAWRENCE       CLOUDY    69  66  90 E7        29.93F FOG
MANHATTAN      CLOUDY    71  69  93 E3        29.93R
MARYSVILLE     CLOUDY    70  68  94 SE8       29.95S
OLATHE IND     CLOUDY    69  67  93 E7        29.94F FOG
OLATHE EXE     CLOUDY    68  67  96 E3        29.94S FOG
SALINA         CLEAR     70  64  81 SW7       29.94R
TOPEKA BILLARD CLOUDY    70  67  90 NE8       29.93S FOG
TOPEKA FORBES  CLOUDY    72  67  84 E7        29.93S
$$



USA.gov is the U.S. government's official web portal to all federal, state and local government web resources and services.